Location: Newark
(45.2500°N, 7.5833°E)
Time: 03:29:02
(UTC+00:00)

Tiros 1 despin weight - Pass Details

Date: 27 January 2020
Orbit: 594 x 642 km, 48.2° (Epoch: 18 February)

Event Time Altitude Azimuth Distance (km) Brightness Sun altitude
Rises 10:10:28 0° 231° (SW) 2,844 ? 22.9°
Reaches altitude 10° 10:12:46 10° 227° (SW) 1,950 ? 23.0°
Maximum altitude 10:17:08 53° 150° (SSE) 753 ? 23.3°
Drops below altitude 10° 10:21:35 10° 74° (ENE) 1,988 ? 23.6°
Sets 10:23:57 0° 70° (ENE) 2,905 ? 23.8°
